CT2IRK-11 Weather Reports


Display with metric or nautical units.
time (UTC)temp
F
wind
direction
speed
MPH
gust
MPH
rain 1hr
in
rain 24hr
in
rain mn
in
humidity
%
barometer
mb
20260509032005 58 90 6.0 9.0 0.00 0.08 0.01 88 997.5
20260509031005 57 97 6.0 9.0 0.00 0.08 0.01 89 997.8
20260509030006 57 135 7.0 10.0 0.00 0.08 0.01 89 997.9
20260509025005 57 111 3.0 7.0 0.00 0.08 0.01 89 997.9
20260509024006 57 113 4.0 8.0 0.00 0.08 0.01 88 997.9
20260509023005 57 81 4.0 8.0 0.00 0.08 0.01 88 997.8
20260509021005 57 128 4.0 6.0 0.00 0.08 0.01 87 998.3
20260509020005 57 332 0.0 0.0 0.00 0.08 0.01 86 998.6
20260509015006 57 174 1.0 7.0 0.00 0.08 0.01 84 998.7
20260509014005 58 184 1.0 7.0 0.00 0.08 0.01 84 998.7
20260509013005 58 212 5.0 6.0 0.00 0.08 0.01 83 999.0
20260509012005 58 183 4.0 6.0 0.01 0.08 0.01 83 999.0
20260509011006 58 167 5.0 9.0 0.01 0.08 0.01 82 999.1
20260509010006 58 167 6.0 10.0 0.01 0.08 0.01 83 999.1
20260509005005 58 173 5.0 10.0 0.01 0.08 0.01 83 998.9
20260509004005 58 128 9.0 14.0 0.01 0.08 0.01 84 998.9
20260509003006 58 168 7.0 9.0 0.01 0.08 0.01 86 998.9
20260509001006 58 147 6.0 9.0 0.00 0.07 0.00 84 999.1
20260509000005 59 147 6.0 9.0 0.00 0.07 0.00 84 999.3
20260508235005 59 158 6.0 10.0 0.00 0.07 0.00 84 999.2
20260508234006 59 147 6.0 15.0 0.00 0.07 0.00 84 999.2
20260508232006 59 146 9.0 16.0 0.00 0.07 0.00 85 999.3
20260508231005 59 189 9.0 14.0 0.00 0.07 0.00 85 999.3
20260508230006 59 164 6.0 14.0 0.00 0.07 0.00 86 999.3
20260508224005 58 170 5.0 9.0 0.00 0.07 0.07 87 999.0
20260508223005 58 112 9.0 10.0 0.01 0.07 0.07 87 998.9
20260508222005 58 118 6.0 13.0 0.02 0.07 0.07 90 998.8
20260508221006 58 151 7.0 15.0 0.03 0.07 0.07 86 998.5
20260508220005 58 135 10.0 17.0 0.04 0.07 0.07 90 998.5
20260508215005 58 21 9.0 14.0 0.05 0.07 0.07 92 999.1
20260508214005 58 98 12.0 15.0 0.06 0.07 0.07 93 999.2
20260508212005 59 176 7.0 10.0 0.05 0.05 0.05 92 1000.3
20260508211005 59 145 7.0 10.0 0.04 0.04 0.04 93 1000.5
20260508210005 59 174 7.0 12.0 0.03 0.03 0.03 91 1000.3
20260508205005 60 132 2.0 6.0 0.02 0.02 0.02 93 1000.2
20260508204005 60 182 2.0 5.0 0.01 0.01 0.01 93 1000.2
20260508203005 60 176 0.0 2.0 0.01 0.01 0.01 92 1000.0
20260508202006 60 202 0.0 7.0 0.00 0.00 0.00 90 999.8
20260508201005 60 183 0.0 0.0 0.00 0.00 0.00 88 999.8
20260508200005 60 181 0.0 7.0 0.00 0.00 0.00 88 999.7
20260508195005 60 182 6.0 8.0 0.00 0.00 0.00 86 999.9
20260508194005 61 179 6.0 12.0 0.00 0.00 0.00 84 1000.0
20260508193005 61 171 6.0 12.0 0.00 0.00 0.00 83 1000.0
20260508192005 62 240 7.0 14.0 0.00 0.00 0.00 80 999.8
20260508190005 65 200 10.0 14.0 0.00 0.00 0.00 64 998.9
20260508185005 66 242 9.0 10.0 0.00 0.00 0.00 60 998.9
20260508184005 67 211 5.0 7.0 0.00 0.00 0.00 55 998.9
20260508183005 68 161 3.0 7.0 0.00 0.00 0.00 54 999.0
20260508182005 68 211 1.0 7.0 0.00 0.00 0.00 53 998.8
20260508181005 68 205 4.0 8.0 0.00 0.00 0.00 53 999.0
20260508175005 69 180 6.0 10.0 0.00 0.00 0.00 53 999.1
20260508174006 69 230 6.0 9.0 0.00 0.00 0.00 53 999.1
20260508173005 69 222 5.0 9.0 0.00 0.00 0.00 50 999.2
20260508172005 70 202 7.0 9.0 0.00 0.00 0.00 47 999.3
20260508171005 70 202 6.0 9.0 0.00 0.00 0.00 47 999.2
20260508170005 70 180 8.0 10.0 0.00 0.00 0.00 46 999.3
20260508164006 71 217 8.0 12.0 0.00 0.00 0.00 45 999.2
20260508163005 70 135 6.0 9.0 0.00 0.00 0.00 46 999.3
20260508162005 71 209 4.0 9.0 0.00 0.00 0.00 44 999.5
20260508161005 72 256 2.0 7.0 0.00 0.00 0.00 42 999.6
20260508160005 73 283 3.0 7.0 0.00 0.00 0.00 41 999.5
20260508155005 73 199 6.0 10.0 0.00 0.00 0.00 41 999.6
20260508153006 75 239 8.0 9.0 0.00 0.00 0.00 38 999.8
20260508152005 73 207 7.0 10.0 0.00 0.00 0.00 40 999.9
20260508151005 72 202 7.0 10.0 0.00 0.00 0.00 40 1000.2
20260508150005 73 242 5.0 12.0 0.00 0.00 0.00 39 1000.3
20260508145006 74 211 8.0 10.0 0.00 0.00 0.00 37 1000.6
20260508144005 74 219 7.0 12.0 0.00 0.00 0.00 37 1000.7
20260508143005 73 229 6.0 8.0 0.00 0.00 0.00 38 1000.8
20260508142005 73 220 7.0 12.0 0.00 0.00 0.00 38 1000.8
20260508141006 74 205 7.0 10.0 0.00 0.00 0.00 37 1000.8
20260508140005 77 180 6.0 10.0 0.00 0.00 0.00 34 1001.0
20260508135005 76 173 7.0 9.0 0.00 0.00 0.00 34 1001.1
20260508134005 76 215 7.0 10.0 0.00 0.00 0.00 35 1001.2
20260508133005 73 154 6.0 13.0 0.00 0.00 0.00 37 1001.3
20260508132005 72 202 8.0 13.0 0.00 0.00 0.00 40 1001.6
20260508131005 75 99 5.0 9.0 0.00 0.00 0.00 37 1001.8
20260508130005 70 180 10.0 13.0 0.00 0.00 0.00 43 1001.9
20260508125006 70 180 5.0 9.0 0.00 0.00 0.00 44 1001.9
20260508124006 74 215 7.0 8.0 0.00 0.00 0.00 39 1002.0
20260508122005 68 193 5.0 10.0 0.00 0.00 0.00 46 1002.3
20260508121005 69 214 9.0 14.0 0.00 0.00 0.00 44 1002.3
20260508120005 72 180 5.0 10.0 0.00 0.00 0.00 40 1002.5
20260508115005 72 183 5.0 13.0 0.00 0.00 0.00 39 1002.6
20260508114005 73 144 5.0 9.0 0.00 0.00 0.00 40 1002.7
20260508113006 70 255 4.0 9.0 0.00 0.00 0.00 44 1002.9
20260508111005 70 209 7.0 12.0 0.00 0.00 0.00 42 1003.0
20260508110005 72 182 7.0 10.0 0.00 0.00 0.00 41 1003.2
20260508104005 72 229 7.0 12.0 0.00 0.00 0.00 42 1003.3
20260508103005 73 182 8.0 12.0 0.00 0.00 0.00 42 1003.3
20260508102005 71 224 6.0 10.0 0.00 0.00 0.00 43 1003.5
20260508101005 71 231 5.0 12.0 0.00 0.00 0.00 43 1003.5
20260508100005 69 194 6.0 12.0 0.00 0.00 0.00 45 1003.5
20260508095005 69 194 4.0 10.0 0.00 0.00 0.00 49 1003.6
20260508094005 68 188 7.0 8.0 0.00 0.00 0.00 51 1003.7
20260508093005 66 180 5.0 8.0 0.00 0.00 0.00 56 1003.6
20260508092005 64 131 9.0 12.0 0.00 0.00 0.00 57 1003.8
20260508091005 66 168 6.0 10.0 0.00 0.00 0.00 57 1003.7
20260508085004 64 211 5.0 7.0 0.00 0.00 0.00 62 1003.8
20260508084005 63 170 3.0 6.0 0.00 0.00 0.00 63 1003.8
20260508083005 63 132 3.0 6.0 0.00 0.00 0.00 65 1003.7
20260508082005 62 246 3.0 7.0 0.00 0.00 0.00 67 1003.7
20260508080004 59 242 4.0 5.0 0.00 0.00 0.00 75 1003.7
20260508075005 59 199 3.0 5.0 0.00 0.00 0.00 75 1003.6
20260508073004 58 208 0.0 2.0 0.00 0.00 0.00 74 1003.5
20260508072005 58 183 0.0 0.0 0.00 0.00 0.00 73 1003.3
20260508070006 57 188 0.0 0.0 0.00 0.00 0.00 76 1002.9
20260508065005 57 136 0.0 0.0 0.00 0.00 0.00 76 1002.9
20260508063004 56 141 0.0 0.0 0.00 0.00 0.00 80 1002.9
20260508060005 56 80 0.0 0.0 0.00 0.00 0.00 81 1002.6
20260508055005 56 170 0.0 0.0 0.00 0.00 0.00 81 1002.6
20260508054005 56 22 0.0 0.0 0.00 0.00 0.00 81 1002.5
20260508053004 56 13 0.0 0.0 0.00 0.00 0.00 81 1002.4
20260508052005 56 270 0.0 0.0 0.00 0.00 0.00 81 1002.5
20260508051005 56 210 0.0 0.0 0.00 0.00 0.00 79 1002.4
20260508050004 56 195 0.0 0.0 0.00 0.00 0.00 78 1002.4
20260508045006 56 183 0.0 0.0 0.00 0.00 0.00 77 1002.4
20260508044005 56 210 0.0 0.0 0.00 0.00 0.00 77 1002.3
20260508043005 56 171 0.0 0.0 0.00 0.00 0.00 77 1002.3
20260508042006 56 158 0.0 0.0 0.00 0.00 0.00 78 1002.2
20260508040006 56 183 0.0 0.0 0.00 0.00 0.00 79 1002.1
20260508035005 56 158 0.0 0.0 0.00 0.00 0.00 80 1002.2
20260508033006 56 206 0.0 5.0 0.00 0.00 0.00 81 1002.3